When you browse on this site, cookies collect data to enhance your experience and personalize the content and advertising you see.
Visit our Privacy Policy to learn more. By continuing to use the site, you agree to this use of cookies and data.
  • în România
  • Lista ţărilor
  • Pe 7 zile
  • Temperatura apei
  • Hartă satelitară
  • Meteo pe hartă
  • Widget-uri
  • user-avatar
    Intrare

    Meteo pe oră la Kaposvar

    Astăzi, 22 Ianuarie, Marţi

    Timp Temperatura Precipitaţii Vânt Presiune Umiditate
    00:00 0°C° 0 mm 1 m/s 750 mmHg 71%
    01:00 0°C° 0 mm 1 m/s 749 mmHg 74%
    02:00 0°C° 0 mm 1 m/s 749 mmHg 74%
    03:00 0°C° 0 mm 1 m/s 748 mmHg 75%
    04:00 -2°C° 0 mm 2 m/s 748 mmHg 75%
    05:00 -2°C° 0 mm 2 m/s 748 mmHg 74%
    06:00 -3°C° 0 mm 2 m/s 747 mmHg 73%
    07:00 -3°C° 0 mm 2 m/s 747 mmHg 69%
    08:00 -3°C° 0 mm 2 m/s 747 mmHg 67%
    09:00 -2°C° 0 mm 2 m/s 747 mmHg 66%
    10:00 -2°C° 0 mm 2 m/s 747 mmHg 65%
    11:00 -2°C° 0 mm 3 m/s 746 mmHg 65%
    12:00 -1°C° 0 mm 3 m/s 745 mmHg 65%
    13:00 -2°C° 0 mm 3 m/s 745 mmHg 70%
    14:00 -2°C° 0.1 mm 3 m/s 745 mmHg 74%
    15:00 -2°C° 0.1 mm 3 m/s 744 mmHg 77%
    16:00 -2°C° 0.1 mm 3 m/s 743 mmHg 80%
    17:00 -4°C° 0.1 mm 3 m/s 743 mmHg 82%
    18:00 -4°C° 0.1 mm 3 m/s 742 mmHg 84%
    19:00 -4°C° 0.1 mm 3 m/s 742 mmHg 87%
    20:00 -4°C° 0.1 mm 3 m/s 741 mmHg 87%
    21:00 -4°C° 0.1 mm 3 m/s 741 mmHg 87%
    22:00 -4°C° 0.1 mm 3 m/s 741 mmHg 87%
    23:00 -4°C° 0.2 mm 3 m/s 740 mmHg 88%

    Mâine, 23 Ianuarie, Miercuri

    Timp Temperatura Precipitaţii Vânt Presiune Umiditate
    00:00 -4°C° 0.2 mm 3 m/s 740 mmHg 89%
    01:00 -4°C° 0.2 mm 3 m/s 739 mmHg 89%
    02:00 -4°C° 0.3 mm 3 m/s 739 mmHg 90%
    03:00 -3°C° 0.3 mm 2 m/s 738 mmHg 91%
    04:00 -3°C° 0.3 mm 2 m/s 738 mmHg 91%
    05:00 -3°C° 0.1 mm 2 m/s 737 mmHg 91%
    06:00 -3°C° 0.1 mm 2 m/s 737 mmHg 92%
    07:00 -3°C° 0.1 mm 2 m/s 737 mmHg 92%
    08:00 -3°C° 0 mm 2 m/s 737 mmHg 90%
    09:00 -2°C° 0 mm 2 m/s 737 mmHg 89%
    10:00 -2°C° 0 mm 2 m/s 737 mmHg 88%
    11:00 -1°C° 0 mm 2 m/s 737 mmHg 87%
    12:00 -1°C° 0 mm 2 m/s 736 mmHg 86%
    13:00 +2°C° 0 mm 1 m/s 736 mmHg 85%
    14:00 -1°C° 0 mm 2 m/s 736 mmHg 86%
    15:00 -1°C° 0 mm 2 m/s 736 mmHg 88%
    16:00 -1°C° 0 mm 2 m/s 736 mmHg 90%
    17:00 -1°C° 0 mm 2 m/s 736 mmHg 92%
    18:00 -2°C° 0 mm 2 m/s 736 mmHg 94%
    19:00 -2°C° 0 mm 2 m/s 736 mmHg 96%
    20:00 -2°C° 0 mm 2 m/s 736 mmHg 95%
    21:00 -2°C° 0 mm 2 m/s 736 mmHg 95%
    22:00 -2°C° 0 mm 2 m/s 736 mmHg 94%
    23:00 -2°C° 0 mm 2 m/s 736 mmHg 94%

    Poimâine, 24 Ianuarie, Joi

    Timp Temperatura Precipitaţii Vânt Presiune Umiditate
    00:00 -2°C° 0 mm 3 m/s 736 mmHg 94%
    01:00 -2°C° 0 mm 3 m/s 736 mmHg 94%
    02:00 -2°C° 0 mm 3 m/s 736 mmHg 93%
    03:00 -2°C° 0 mm 3 m/s 736 mmHg 93%
    04:00 -2°C° 0 mm 3 m/s 736 mmHg 93%
    05:00 -2°C° 0 mm 3 m/s 736 mmHg 93%
    06:00 -2°C° 0 mm 3 m/s 736 mmHg 93%
    07:00 -2°C° 0 mm 3 m/s 736 mmHg 92%
    08:00 -2°C° 0 mm 3 m/s 737 mmHg 90%
    09:00 -2°C° 0 mm 4 m/s 737 mmHg 88%
    10:00 -2°C° 0 mm 4 m/s 737 mmHg 86%
    11:00 -1°C° 0 mm 4 m/s 737 mmHg 83%
    12:00 -1°C° 0 mm 5 m/s 736 mmHg 81%
    13:00 0°C° 0 mm 5 m/s 736 mmHg 78%
    14:00 -1°C° 0 mm 5 m/s 736 mmHg 77%
    15:00 -1°C° 0 mm 5 m/s 736 mmHg 76%
    16:00 -1°C° 0 mm 5 m/s 736 mmHg 75%
    17:00 -1°C° 0 mm 5 m/s 736 mmHg 74%
    18:00 -2°C° 0 mm 5 m/s 737 mmHg 74%
    19:00 -3°C° 0 mm 6 m/s 737 mmHg 73%
    20:00 -4°C° 0 mm 6 m/s 737 mmHg 73%
    21:00 -4°C° 0 mm 6 m/s 737 mmHg 72%
    22:00 -4°C° 0 mm 6 m/s 737 mmHg 72%
    23:00 -4°C° 0.1 mm 6 m/s 737 mmHg 72%

    25 Ianuarie, Vineri

    Timp Temperatura Precipitaţii Vânt Presiune Umiditate
    00:00 -4°C° 0.1 mm 6 m/s 737 mmHg 72%
    01:00 -4°C° 0.1 mm 6 m/s 737 mmHg 71%
    02:00 -4°C° 0.1 mm 7 m/s 737 mmHg 71%
    03:00 -6°C° 0.1 mm 7 m/s 737 mmHg 72%
    04:00 -6°C° 0.1 mm 7 m/s 737 mmHg 72%
    05:00 -6°C° 0.1 mm 7 m/s 737 mmHg 71%
    06:00 -6°C° 0.1 mm 7 m/s 737 mmHg 71%
    07:00 -6°C° 0.1 mm 7 m/s 737 mmHg 71%
    08:00 -6°C° 0.1 mm 8 m/s 738 mmHg 71%
    09:00 -6°C° 0.1 mm 8 m/s 738 mmHg 71%
    10:00 -6°C° 0.1 mm 8 m/s 738 mmHg 71%
    11:00 -6°C° 0.2 mm 8 m/s 738 mmHg 73%
    12:00 -6°C° 0.2 mm 7 m/s 738 mmHg 75%
    13:00 -4°C° 0.2 mm 7 m/s 739 mmHg 77%
    14:00 -6°C° 0.3 mm 7 m/s 739 mmHg 78%
    15:00 -6°C° 0.3 mm 7 m/s 739 mmHg 79%
    16:00 -6°C° 0.3 mm 7 m/s 739 mmHg 80%
    17:00 -6°C° 0.1 mm 7 m/s 739 mmHg 79%
    18:00 -6°C° 0.1 mm 8 m/s 740 mmHg 79%
    19:00 -6°C° 0.1 mm 8 m/s 740 mmHg 78%
    20:00 -6°C° 0.2 mm 8 m/s 740 mmHg 79%
    21:00 -6°C° 0.2 mm 8 m/s 741 mmHg 79%
    22:00 -6°C° 0.2 mm 8 m/s 741 mmHg 80%
    23:00 -6°C° 0.1 mm 8 m/s 742 mmHg 79%

    26 Ianuarie, Sâmbătă

    Timp Temperatura Precipitaţii Vânt Presiune Umiditate
    00:00 -6°C° 0.1 mm 8 m/s 742 mmHg 78%
    01:00 -6°C° 0.1 mm 9 m/s 742 mmHg 78%
    02:00 -6°C° 0.1 mm 8 m/s 742 mmHg 78%
    03:00 -7°C° 0.1 mm 8 m/s 742 mmHg 78%
    04:00 -7°C° 0.1 mm 8 m/s 742 mmHg 78%
    05:00 -8°C° 0.1 mm 9 m/s 742 mmHg 78%
    06:00 -8°C° 0.1 mm 9 m/s 743 mmHg 77%
    07:00 -8°C° 0.1 mm 9 m/s 743 mmHg 76%
    08:00 -8°C° 0 mm 9 m/s 743 mmHg 75%
    09:00 -8°C° 0 mm 9 m/s 744 mmHg 75%
    10:00 -6°C° 0 mm 9 m/s 744 mmHg 74%
    11:00 -6°C° 0 mm 9 m/s 744 mmHg 73%
    12:00 -5°C° 0 mm 8 m/s 744 mmHg 71%
    13:00 -5°C° 0 mm 8 m/s 744 mmHg 70%
    14:00 -5°C° 0 mm 8 m/s 744 mmHg 70%
    15:00 -5°C° 0 mm 8 m/s 744 mmHg 71%
    16:00 -4°C° 0 mm 7 m/s 744 mmHg 71%
    17:00 -6°C° 0 mm 7 m/s 744 mmHg 72%
    18:00 -6°C° 0 mm 7 m/s 744 mmHg 74%
    19:00 -5°C° 0 mm 6 m/s 744 mmHg 75%
    20:00 -5°C° 0 mm 6 m/s 744 mmHg 76%
    21:00 -6°C° 0 mm 6 m/s 744 mmHg 76%
    22:00 -6°C° 0 mm 5 m/s 745 mmHg 77%
    23:00 -6°C° 0 mm 5 m/s 744 mmHg 77%

    27 Ianuarie, Duminică

    Timp Temperatura Precipitaţii Vânt Presiune Umiditate
    00:00 -6°C° 0 mm 5 m/s 744 mmHg 78%
    01:00 -5°C° 0 mm 4 m/s 744 mmHg 79%
    02:00 -5°C° 0 mm 4 m/s 744 mmHg 80%
    03:00 -5°C° 0 mm 3 m/s 744 mmHg 80%
    04:00 -5°C° 0 mm 3 m/s 743 mmHg 81%
    05:00 -4°C° 0 mm 2 m/s 743 mmHg 82%
    06:00 -4°C° 0 mm 2 m/s 743 mmHg 83%
    07:00 -4°C° 0 mm 2 m/s 743 mmHg 84%
    08:00 -2°C° 0 mm 1 m/s 743 mmHg 83%
    09:00 -1°C° 0 mm 1 m/s 743 mmHg 81%
    10:00 -1°C° 0 mm 1 m/s 743 mmHg 80%
    11:00 0°C° 0 mm 1 m/s 743 mmHg 79%
    12:00 0°C° 0 mm 1 m/s 743 mmHg 79%
    13:00 +1°C° 0 mm 1 m/s 743 mmHg 78%
    14:00 +1°C° 0 mm 1 m/s 743 mmHg 79%
    15:00 +1°C° 0 mm 1 m/s 743 mmHg 81%
    16:00 +1°C° 0 mm 1 m/s 743 mmHg 82%
    17:00 0°C° 0 mm 1 m/s 743 mmHg 84%
    18:00 0°C° 0 mm 1 m/s 743 mmHg 87%
    19:00 0°C° 0 mm 1 m/s 743 mmHg 89%
    20:00 0°C° 0 mm 1 m/s 743 mmHg 90%
    21:00 -1°C° 0 mm 1 m/s 743 mmHg 92%
    22:00 -1°C° 0 mm 1 m/s 744 mmHg 93%
    23:00 -1°C° 0 mm 1 m/s 744 mmHg 94%
    Arată mai mult